This is the latest recevied weather packets stored in our database for station/object W0WFX-2. If no packets are shown the sender has not sent any weather packets the latest 10 day(s).
| Time | Temp. | Humidity | Pressure | Rain* | Wind** | Luminosity | Snow |
|---|---|---|---|---|---|---|---|
| 1788109190 | 34.44° C | 41% | 1013.6 hPa | 0 mm | - | 703 W/m² | - |
| 1788108886 | 33.89° C | 42% | 1013.6 hPa | 0 mm | - | 694 W/m² | - |
| 1788108582 | 33.33° C | 43% | 1013.8 hPa | 0 mm | - | 685 W/m² | - |
| 1788108278 | 33.33° C | 42% | 1013.9 hPa | 0 mm | - | 675 W/m² | - |
| 1788107974 | 32.78° C | 43% | 1013.7 hPa | 0 mm | - | 669 W/m² | - |
| 1788107671 | 33.33° C | 43% | 1013.7 hPa | 0 mm | - | 643 W/m² | - |
| 1788107370 | 33.33° C | 42% | 1013.8 hPa | 0 mm | - | 644 W/m² | - |
| 1788107066 | 33.33° C | 43% | 1013.9 hPa | 0 mm | - | 601 W/m² | - |
| 1788106766 | 32.78° C | 44% | 1013.9 hPa | 0 mm | - | 638 W/m² | - |
| 1788106465 | 32.78° C | 44% | 1014 hPa | 0 mm | - | 642 W/m² | - |
| 1788106160 | 32.78° C | 45% | 1013.9 hPa | 0 mm | - | 584 W/m² | - |
| 1788105857 | 31.67° C | 44% | 1013.8 hPa | 0 mm | - | 617 W/m² | - |
| 1788105552 | 31.11° C | 46% | 1013.8 hPa | 0 mm | - | 581 W/m² | - |
| 1788105248 | 31.11° C | 46% | 1013.8 hPa | 0 mm | - | 465 W/m² | - |
| 1788104943 | 31.67° C | 45% | 1014 hPa | 0 mm | - | 337 W/m² | - |
| 1788104639 | 31.67° C | 46% | 1013.8 hPa | 0 mm | - | 493 W/m² | - |
| 1788104335 | 31.67° C | 45% | 1013.7 hPa | 0 mm | - | 592 W/m² | - |
| 1788104030 | 31.67° C | 44% | 1013.8 hPa | 0 mm | - | 575 W/m² | - |
| 1788103729 | 31.11° C | 45% | 1013.5 hPa | 0 mm | - | 551 W/m² | - |
| 1788103424 | 30.56° C | 48% | 1013.4 hPa | 0 mm | - | 539 W/m² | - |
| 1788103119 | 31.11° C | 48% | 1013.4 hPa | 0 mm | - | 520 W/m² | - |
| 1788102817 | 30° C | 49% | 1013.6 hPa | 0 mm | - | 504 W/m² | - |
| 1788102513 | 29.44° C | 51% | 1013.3 hPa | 0 mm | - | 484 W/m² | - |
| 1788102207 | 28.89° C | 51% | 1013.6 hPa | 0 mm | - | 450 W/m² | - |
| 1788101907 | 28.89° C | 52% | 1013.4 hPa | 0 mm | - | 461 W/m² | - |
* Rain latest hour (hover to see other rain measurements)
** Current wind speed in m/s (hover to see current wind gust speed)